DW4393 Weather Reports


Display with metric or nautical units.
time (UTC)temp
F
wind
direction
speed
MPH
gust
MPH
rain 1hr
in
rain 24hr
in
rain mn
in
humidity
%
barometer
mb
20260504044803 46 202 0.0 0.0 0.00 0.00 0.00 88 1018.6
20260504044304 46 202 0.0 0.0 0.00 0.00 0.00 88 1018.6
20260504043304 47 202 0.0 0.0 0.00 0.00 0.00 88 1018.5
20260504041804 47 202 0.0 0.0 0.00 0.00 0.00 87 1018.6
20260504041305 48 202 0.0 0.0 0.00 0.00 0.00 87 1018.5
20260504040822 48 202 0.0 0.0 0.00 0.00 0.00 86 1018.5
20260504040304 48 202 0.0 0.0 0.00 0.00 0.00 86 1018.6
20260504034804 49 202 0.0 0.0 0.00 0.00 0.00 85 1018.5
20260504034304 49 202 0.0 0.0 0.00 0.00 0.00 85 1018.5
20260504033804 49 202 0.0 0.0 0.00 0.00 0.00 84 1018.4
20260504031304 50 202 0.0 0.0 0.00 0.00 0.00 82 1018.6
20260504030804 50 202 0.0 0.0 0.00 0.00 0.00 82 1018.5
20260504030305 50 202 0.0 0.0 0.00 0.00 0.00 82 1018.3
20260504024804 51 202 0.0 0.0 0.00 0.00 0.00 80 1018.4
20260504024304 51 202 0.0 0.0 0.00 0.00 0.00 81 1018.3
20260504023804 51 202 0.0 0.0 0.00 0.00 0.00 80 1018.2
20260504023304 52 202 0.0 1.0 0.00 0.00 0.00 80 1018.1
20260504021304 53 202 0.0 0.0 0.00 0.00 0.00 78 1017.8
20260504020804 53 202 0.0 0.0 0.00 0.00 0.00 77 1017.8
20260504020307 53 202 0.0 0.0 0.00 0.00 0.00 76 1017.8
20260504014802 54 202 0.0 0.0 0.00 0.00 0.00 74 1017.6
20260504014303 54 202 0.0 0.0 0.00 0.00 0.00 74 1017.5
20260504013303 55 202 0.0 0.0 0.00 0.00 0.00 72 1017.4
20260504011803 55 202 0.0 0.0 0.00 0.00 0.00 70 1017.3
20260504011302 56 202 0.0 0.0 0.00 0.00 0.00 67 1017.3
20260504010303 56 202 0.0 0.0 0.00 0.00 0.00 65 1017.2
20260504004802 58 202 0.0 0.0 0.00 0.00 0.00 62 1017.0
20260504004303 59 202 0.0 0.0 0.00 0.00 0.00 61 1017.0
20260504003803 59 202 0.0 0.0 0.00 0.00 0.00 61 1017.0
20260504003302 60 202 0.0 0.0 0.00 0.00 0.00 59 1016.9
20260504001303 62 202 0.0 0.0 0.00 0.00 0.00 53 1016.8
20260504000803 62 202 0.0 0.0 0.00 0.00 0.00 52 1016.9
20260504000303 63 202 0.0 0.0 0.00 0.00 0.00 51 1016.7
20260503234803 64 202 0.0 0.0 0.00 0.00 0.00 46 1016.7
20260503233803 65 202 0.0 0.0 0.00 0.00 0.00 39 1016.7
20260503233302 66 202 0.0 0.0 0.00 0.00 0.00 40 1016.6
20260503231303 67 202 0.0 0.0 0.00 0.00 0.00 41 1016.7
20260503230803 67 202 0.0 0.0 0.00 0.00 0.00 41 1016.7
20260503230303 67 202 0.0 1.0 0.00 0.00 0.00 37 1016.7
20260503224803 68 175 0.0 0.0 0.00 0.00 0.00 39 1016.8
20260503224303 68 180 1.0 1.0 0.00 0.00 0.00 36 1016.7
20260503223803 68 40 0.0 1.0 0.00 0.00 0.00 38 1016.7
20260503223303 69 40 1.0 5.0 0.00 0.00 0.00 36 1016.7
20260503221303 68 183 1.0 3.0 0.00 0.00 0.00 34 1016.8
20260503220803 69 190 0.0 2.0 0.00 0.00 0.00 35 1016.8
20260503220302 69 234 0.0 3.0 0.00 0.00 0.00 40 1016.8
20260503214303 69 212 0.0 2.0 0.00 0.00 0.00 32 1016.9
20260503213803 70 175 1.0 3.0 0.00 0.00 0.00 35 1017.0
20260503213303 70 227 1.0 3.0 0.00 0.00 0.00 37 1017.0
20260503211803 70 201 1.0 3.0 0.00 0.00 0.00 34 1017.1
20260503210803 70 182 2.0 3.0 0.00 0.00 0.00 33 1017.1
20260503210303 70 219 1.0 6.0 0.00 0.00 0.00 35 1017.2
20260503204803 70 224 2.0 5.0 0.00 0.00 0.00 34 1017.2
20260503204303 70 250 1.0 3.0 0.00 0.00 0.00 38 1017.3
20260503203803 71 63 1.0 2.0 0.00 0.00 0.00 36 1017.4
20260503201803 71 166 1.0 2.0 0.00 0.00 0.00 36 1017.8
20260503201303 71 183 2.0 3.0 0.00 0.00 0.00 36 1017.9
20260503200803 71 216 2.0 3.0 0.00 0.00 0.00 36 1017.9
20260503200303 71 216 2.0 5.0 0.00 0.00 0.00 34 1018.0
20260503194803 71 249 1.0 3.0 0.00 0.00 0.00 37 1018.2
20260503194303 71 82 1.0 2.0 0.00 0.00 0.00 33 1018.2
20260503193803 71 112 1.0 3.0 0.00 0.00 0.00 32 1018.4
20260503193303 71 255 1.0 3.0 0.00 0.00 0.00 36 1018.5
20260503191303 70 149 1.0 3.0 0.00 0.00 0.00 33 1018.8
20260503190804 71 36 1.0 3.0 0.00 0.00 0.00 37 1019.0
20260503190303 70 242 1.0 5.0 0.00 0.00 0.00 38 1019.0
20260503184304 69 218 1.0 2.0 0.00 0.00 0.00 38 1019.3
20260503183303 68 252 1.0 3.0 0.00 0.00 0.00 37 1019.5
20260503181803 69 251 1.0 3.0 0.00 0.00 0.00 45 1019.5
20260503180803 67 214 2.0 3.0 0.00 0.00 0.00 40 1019.7
20260503174803 66 114 1.0 2.0 0.00 0.00 0.00 43 1019.7
20260503173803 67 147 1.0 2.0 0.00 0.00 0.00 42 1020.0
20260503173303 66 205 1.0 3.0 0.00 0.00 0.00 38 1020.0
20260503171303 66 136 1.0 2.0 0.00 0.00 0.00 42 1020.2
20260503170304 65 13 1.0 5.0 0.00 0.00 0.00 41 1020.3
20260503150803 59 44 1.0 2.0 0.00 0.00 0.00 54 1021.2
20260503150304 59 261 1.0 2.0 0.00 0.00 0.00 53 1021.1
20260503140304 56 101 0.0 1.0 0.00 0.00 0.00 67 1020.6
20260503131304 52 334 0.0 1.0 0.00 0.00 0.00 77 1020.4
20260503130803 51 93 0.0 2.0 0.00 0.00 0.00 79 1020.4
20260503110803 43 66 0.0 1.0 0.00 0.00 0.00 91 1019.6
20260503110303 43 66 0.0 1.0 0.00 0.00 0.00 91 1019.6
20260503090303 44 74 0.0 0.0 0.00 0.00 0.00 89 1018.7
20260503081304 45 74 0.0 0.0 0.00 0.00 0.00 88 1018.2
20260503080304 45 74 0.0 0.0 0.00 0.00 0.00 88 1018.1
20260503071804 45 74 0.0 0.0 0.00 0.00 0.00 87 1017.6
20260503071304 45 74 0.0 0.0 0.00 0.00 0.00 87 1017.5
20260503070803 45 74 0.0 1.0 0.00 0.00 0.00 87 1017.5
20260503070303 45 74 0.0 0.0 0.00 0.00 0.00 87 1017.4